Back to catalog

HULIANWANG DIGUI-74

AliveCommunicationsLEO
NORAD 65306·PAYLOAD·🇨🇳 China

Launched Aug 25, 2025 from Wenchang Space Launch Site

Loading…

Next Passes (next 24 hours)

TLE

FreshSource: Space-Track

Epoch: Sep 14, 2026, 14:01 UTC

1 65306U 25187B   26257.58447237 -.00000108  00000-0  35185-4 0  9991
2 65306  50.0080 245.2456 0000678 339.4055  20.6790 13.29324104 51596

Track HULIANWANG DIGUI-74 in real time with AllMySat

Download on the App Store